Location: Freistadt
(48.5112°N, 14.5013°E)
Time: 21:53:11
(UTC+02:00)

O/OREOS (USA 219) - Pass Details

Date: 05 April 2023
Orbit: 621 x 646 km, 72.0° (Epoch: 22 May)

Event Time Altitude Azimuth Distance (km) Brightness Sun altitude
Exits shadow 04:04:10 18° 149° (SSE) 1,588 ? -23.0°
Maximum altitude 04:06:35 27° 105° (ESE) 1,217 ? -22.7°
Drops below altitude 10° 04:10:26 10° 47° (NE) 2,030 ? -22.2°
Sets 04:12:57 0° 36° (NE) 2,939 ? -21.8°
